When you browse on this site, cookies collect data to enhance your experience and personalize the content and advertising you see.
Visit our Privacy Policy to learn more. By continuing to use the site, you agree to this use of cookies and data.
  • In Hungary
  • List of Countries
  • For 7 days
  • Water Temperature
  • Weather Map
  • News
  • Weather Widgets
  • user-avatar
    Login

    Hourly Weather Puttlingen

    Today, 13 December, Friday

    Time Temperature Precipitation Wind Pressure Humidity
    00:00 -2°C° 0 mm 6 mps 717 mmHg 94%
    01:00 -1°C° 1.2 mm 6 mps 716 mmHg 94%
    02:00 +1°C° 1.2 mm 5 mps 714 mmHg 94%
    03:00 +2°C° 1.2 mm 5 mps 713 mmHg 95%
    04:00 +2°C° 1.2 mm 5 mps 712 mmHg 95%
    05:00 +2°C° 1.2 mm 5 mps 711 mmHg 95%
    06:00 +3°C° 0 mm 4 mps 710 mmHg 95%
    07:00 +2°C° 1.2 mm 5 mps 710 mmHg 94%
    08:00 +3°C° 1.2 mm 7 mps 710 mmHg 93%
    09:00 +2°C° 1.2 mm 8 mps 711 mmHg 92%
    10:00 +2°C° 0.3 mm 8 mps 711 mmHg 90%
    11:00 +2°C° 0.3 mm 8 mps 712 mmHg 87%
    12:00 +2°C° 0 mm 8 mps 713 mmHg 86%
    13:00 +2°C° 0.9 mm 8 mps 714 mmHg 88%
    14:00 +1°C° 0.9 mm 8 mps 714 mmHg 91%
    15:00 +1°C° 0.9 mm 9 mps 715 mmHg 94%
    16:00 +2°C° 0.6 mm 8 mps 716 mmHg 91%
    17:00 +2°C° 0.6 mm 8 mps 717 mmHg 89%
    18:00 +2°C° 0.6 mm 8 mps 718 mmHg 86%
    19:00 +3°C° 0.1 mm 7 mps 719 mmHg 86%
    20:00 +3°C° 0.1 mm 6 mps 720 mmHg 86%
    21:00 +3°C° 0.1 mm 6 mps 721 mmHg 85%
    22:00 +2°C° 0 mm 6 mps 721 mmHg 87%
    23:00 +2°C° 0 mm 6 mps 721 mmHg 88%

    Tomorrow, 14 December, Saturday

    Time Temperature Precipitation Wind Pressure Humidity
    00:00 +1°C° 0 mm 6 mps 720 mmHg 90%
    01:00 +2°C° 1.4 mm 6 mps 719 mmHg 91%
    02:00 +2°C° 1.4 mm 7 mps 718 mmHg 92%
    03:00 +3°C° 1.4 mm 7 mps 717 mmHg 93%
    04:00 +4°C° 0.3 mm 8 mps 718 mmHg 89%
    05:00 +5°C° 0.3 mm 9 mps 718 mmHg 85%
    06:00 +5°C° 0.3 mm 10 mps 719 mmHg 82%
    07:00 +5°C° 0.3 mm 10 mps 721 mmHg 81%
    08:00 +5°C° 0.3 mm 9 mps 723 mmHg 80%
    09:00 +3°C° 0.3 mm 9 mps 725 mmHg 79%
    10:00 +4°C° 0 mm 8 mps 725 mmHg 77%
    11:00 +5°C° 0 mm 8 mps 726 mmHg 74%
    12:00 +5°C° 0 mm 7 mps 727 mmHg 72%
    13:00 +5°C° 0.1 mm 7 mps 727 mmHg 74%
    14:00 +5°C° 0.1 mm 7 mps 728 mmHg 77%
    15:00 +5°C° 0.1 mm 7 mps 728 mmHg 79%
    16:00 +5°C° 0.2 mm 7 mps 728 mmHg 81%
    17:00 +5°C° 0.2 mm 6 mps 729 mmHg 83%
    18:00 +5°C° 0.2 mm 6 mps 729 mmHg 85%
    19:00 +6°C° 0.1 mm 5 mps 729 mmHg 86%
    20:00 +6°C° 0.1 mm 4 mps 729 mmHg 87%
    21:00 +5°C° 0.1 mm 4 mps 730 mmHg 88%
    22:00 +6°C° 0.1 mm 4 mps 729 mmHg 90%
    23:00 +6°C° 0.1 mm 5 mps 729 mmHg 91%

    Day after tomorrow, 15 December, Sunday

    Time Temperature Precipitation Wind Pressure Humidity
    00:00 +7°C° 0.1 mm 5 mps 728 mmHg 92%
    01:00 +7°C° 1.3 mm 6 mps 727 mmHg 92%
    02:00 +8°C° 1.3 mm 7 mps 727 mmHg 92%
    03:00 +8°C° 1.3 mm 7 mps 726 mmHg 92%
    04:00 +7°C° 1.3 mm 8 mps 727 mmHg 90%
    05:00 +7°C° 1.3 mm 8 mps 727 mmHg 88%
    06:00 +7°C° 1.3 mm 9 mps 727 mmHg 86%
    07:00 +7°C° 1 mm 8 mps 728 mmHg 84%
    08:00 +6°C° 1 mm 7 mps 730 mmHg 81%
    09:00 +5°C° 1 mm 6 mps 731 mmHg 79%
    10:00 +5°C° 0.1 mm 6 mps 731 mmHg 76%
    11:00 +7°C° 0.1 mm 5 mps 732 mmHg 73%
    12:00 +7°C° 0.1 mm 5 mps 733 mmHg 70%
    13:00 +7°C° 0 mm 4 mps 733 mmHg 72%
    14:00 +7°C° 0 mm 3 mps 733 mmHg 74%
    15:00 +7°C° 0 mm 3 mps 733 mmHg 75%
    16:00 +7°C° 0.2 mm 2 mps 733 mmHg 81%
    17:00 +7°C° 0.2 mm 2 mps 733 mmHg 86%
    18:00 +6°C° 0.2 mm 2 mps 733 mmHg 91%
    19:00 +7°C° 0.1 mm 2 mps 733 mmHg 92%
    20:00 +7°C° 0.1 mm 2 mps 734 mmHg 93%
    21:00 +7°C° 0.1 mm 3 mps 734 mmHg 94%
    22:00 +7°C° 0.1 mm 3 mps 734 mmHg 94%
    23:00 +7°C° 0.1 mm 3 mps 734 mmHg 94%

    16 December, Monday

    Time Temperature Precipitation Wind Pressure Humidity
    00:00 +7°C° 0.1 mm 2 mps 733 mmHg 95%
    01:00 +8°C° 0.6 mm 2 mps 733 mmHg 95%
    02:00 +8°C° 0.6 mm 2 mps 733 mmHg 95%
    03:00 +8°C° 0.6 mm 2 mps 733 mmHg 96%
    04:00 +8°C° 0.2 mm 3 mps 733 mmHg 94%
    05:00 +8°C° 0.2 mm 3 mps 733 mmHg 92%
    06:00 +8°C° 0.2 mm 3 mps 732 mmHg 89%
    07:00 +8°C° 0 mm 3 mps 733 mmHg 87%
    08:00 +9°C° 0 mm 3 mps 733 mmHg 85%
    09:00 +9°C° 0 mm 3 mps 733 mmHg 83%
    10:00 +9°C° 0 mm 3 mps 732 mmHg 82%
    11:00 +10°C° 0 mm 3 mps 732 mmHg 81%
    12:00 +10°C° 0 mm 3 mps 732 mmHg 80%
    13:00 +10°C° 0 mm 3 mps 731 mmHg 79%
    14:00 +10°C° 0 mm 3 mps 731 mmHg 78%
    15:00 +10°C° 0 mm 3 mps 731 mmHg 77%
    16:00 +9°C° 0 mm 3 mps 730 mmHg 77%
    17:00 +8°C° 0 mm 3 mps 730 mmHg 76%
    18:00 +7°C° 0 mm 3 mps 730 mmHg 76%
    19:00 +7°C° 0 mm 3 mps 730 mmHg 77%
    20:00 +7°C° 0 mm 3 mps 729 mmHg 79%
    21:00 +5°C° 0 mm 3 mps 729 mmHg 81%
    22:00 +6°C° 0 mm 2 mps 729 mmHg 81%
    23:00 +6°C° 0 mm 2 mps 729 mmHg 82%

    17 December, Tuesday

    Time Temperature Precipitation Wind Pressure Humidity
    00:00 +7°C° 0 mm 1 mps 729 mmHg 83%
    01:00 +7°C° 0 mm 1 mps 729 mmHg 82%
    02:00 +7°C° 0 mm 1 mps 730 mmHg 81%
    03:00 +7°C° 0 mm 1 mps 730 mmHg 80%
    04:00 +7°C° 0 mm 1 mps 730 mmHg 81%
    05:00 +7°C° 0 mm 1 mps 730 mmHg 82%
    06:00 +6°C° 0 mm 2 mps 730 mmHg 83%
    07:00 +6°C° 0 mm 2 mps 730 mmHg 83%
    08:00 +6°C° 0 mm 2 mps 731 mmHg 82%
    09:00 +7°C° 0 mm 2 mps 731 mmHg 82%
    10:00 +8°C° 0 mm 2 mps 731 mmHg 79%
    11:00 +9°C° 0 mm 2 mps 731 mmHg 77%
    12:00 +9°C° 0 mm 2 mps 731 mmHg 75%
    13:00 +9°C° 0 mm 2 mps 731 mmHg 77%
    14:00 +9°C° 0 mm 2 mps 731 mmHg 79%
    15:00 +8°C° 0 mm 2 mps 731 mmHg 81%
    16:00 +8°C° 0 mm 2 mps 731 mmHg 80%
    17:00 +8°C° 0 mm 2 mps 731 mmHg 79%
    18:00 +8°C° 0 mm 2 mps 731 mmHg 78%
    19:00 +8°C° 0.1 mm 2 mps 732 mmHg 83%
    20:00 +7°C° 0.1 mm 2 mps 733 mmHg 87%
    21:00 +7°C° 0.1 mm 2 mps 734 mmHg 92%
    22:00 +7°C° 0.1 mm 2 mps 734 mmHg 93%
    23:00 +7°C° 0.1 mm 2 mps 734 mmHg 94%

    18 December, Wednesday

    Time Temperature Precipitation Wind Pressure Humidity
    00:00 +7°C° 0.1 mm 2 mps 735 mmHg 94%
    01:00 +7°C° 0.2 mm 2 mps 735 mmHg 95%
    02:00 +6°C° 0.2 mm 2 mps 736 mmHg 95%
    03:00 +6°C° 0.2 mm 2 mps 736 mmHg 95%
    04:00 +6°C° 0.1 mm 2 mps 736 mmHg 95%
    05:00 +6°C° 0.1 mm 2 mps 736 mmHg 96%
    06:00 +6°C° 0.1 mm 2 mps 737 mmHg 96%
    07:00 +6°C° 0 mm 2 mps 737 mmHg 95%
    08:00 +7°C° 0 mm 1 mps 737 mmHg 94%
    09:00 +8°C° 0 mm 1 mps 738 mmHg 93%
    10:00 +8°C° 0 mm 1 mps 738 mmHg 90%
    11:00 +9°C° 0 mm 1 mps 737 mmHg 87%
    12:00 +9°C° 0 mm 1 mps 737 mmHg 84%
    13:00 +9°C° 0.1 mm 1 mps 737 mmHg 86%
    14:00 +9°C° 0.1 mm 1 mps 737 mmHg 89%
    15:00 +8°C° 0.1 mm 1 mps 737 mmHg 91%
    16:00 +8°C° 0.1 mm 1 mps 737 mmHg 92%
    17:00 +7°C° 0.1 mm 2 mps 736 mmHg 92%
    18:00 +7°C° 0.1 mm 2 mps 736 mmHg 93%
    19:00 +7°C° 0 mm 2 mps 736 mmHg 93%
    20:00 +7°C° 0 mm 2 mps 736 mmHg 93%
    21:00 +7°C° 0 mm 2 mps 736 mmHg 93%
    22:00 +7°C° 0 mm 2 mps 735 mmHg 93%
    23:00 +7°C° 0 mm 2 mps 735 mmHg 93%
    Show more